Weather History for LEZL - June, 2013

Change the Weather History Date:

Sunday, June 23, 2013

  Actual Average Record
Temperature  
Mean Temperature 80 °F -  
Max Temperature 96 °F 92 °F 100 °F (2001)
Min Temperature 64 °F 64 °F 61 °F (2014)
Cooling Degree Days 15    
Growing Degree Days 30 (Base 50)    
Moisture  
Dew Point 49 °F    
Average Humidity 35    
Maximum Humidity 73    
Minimum Humidity 16    
Precipitation  
Precipitation 0.00 in - - ()
Sea Level Pressure  
Sea Level Pressure 30.02 in    
Wind  
Wind Speed 3 mph ()    
Max Wind Speed 13 mph    
Max Gust Speed 15 mph    
Averages and records for this station are not official NWS values.
T = Trace of Precipitation, MM = Missing Value Source: Averaged Metar Reports

Daily Weather History Graph

Daily Weather History Graph

Search for Another Location

Airport or City:

Trip Planner

Search our weather history database for the weather conditions in past years. The results will help you decide how hot, cold, wet, or windy it might be!

Date:

Astronomy

Jun. 23, 2013 Rise Set
Actual Time 7:03 AM CEST 9:48 PM CEST
Civil Twilight 6:32 AM CEST 10:19 PM CEST
Nautical Twilight 5:53 AM CEST 10:58 PM CEST
Astronomical Twilight 5:09 AM CEST 11:42 PM CEST
Moon 9:49 PM CEST (6/23) 7:03 AM CEST (6/23)
Length of Visible Light 15h 46m
Length of Day
14h 44m
Full, 100% of the Moon is Illuminated
Jun 23
Full
Jun 23
Full
Jun 30
Last Quarter
Jul 8
New
Jul 16
First Quarter

Hourly Weather History & Observations

Time (CEST) Temp. Dew Point Humidity Pressure Visibility Wind Dir Wind Speed Gust Speed Precip Events Conditions
12:00 AM 78.8 °F 46.4 °F 32% 30.06 in - SW 5.8 mph - N/A   Clear
12:30 AM 77.0 °F 48.2 °F 36% 30.06 in - WSW 3.5 mph - N/A   Clear
1:00 AM 77.0 °F 48.2 °F 36% 30.06 in - SW 3.5 mph - N/A   Clear
4:30 AM 66.2 °F 51.8 °F 60% 30.04 in - SE 3.5 mph - N/A   Clear
5:00 AM 66.2 °F 51.8 °F 60% 30.04 in - SE 3.5 mph - N/A   Clear
5:30 AM 66.2 °F 51.8 °F 60% 30.04 in - Variable 1.2 mph - N/A   Clear
6:00 AM 66.2 °F 51.8 °F 60% 30.04 in - Calm Calm - N/A   Clear
6:30 AM 66.2 °F 55.4 °F 68% 30.04 in - North 3.5 mph - N/A   Clear
7:00 AM 64.4 °F 55.4 °F 73% 30.06 in - NE 3.5 mph - N/A   Clear
7:30 AM 64.4 °F 55.4 °F 73% 30.06 in - NE 2.3 mph - N/A   Clear
8:00 AM 66.2 °F 53.6 °F 64% 30.06 in - Variable 1.2 mph - N/A   Clear
8:30 AM 69.8 °F 53.6 °F 56% 30.06 in - NE 3.5 mph - N/A   Clear
9:00 AM 71.6 °F 53.6 °F 53% 30.06 in - North 3.5 mph - N/A   Clear
9:30 AM 73.4 °F 53.6 °F 50% 30.06 in - NNE 3.5 mph - N/A   Clear
10:00 AM 75.2 °F 53.6 °F 47% 30.06 in - NNE 4.6 mph - N/A   Clear
10:30 AM 77.0 °F 51.8 °F 41% 30.06 in - NNE 3.5 mph 15.0 mph N/A   Clear
11:00 AM 78.8 °F 51.8 °F 39% 30.06 in - NNE 3.5 mph - N/A   Clear
11:30 AM 82.4 °F 50.0 °F 32% 30.06 in - Variable 2.3 mph - N/A   Clear
12:00 PM 84.2 °F 50.0 °F 30% 30.06 in - Variable 2.3 mph - N/A   Clear
12:30 PM 84.2 °F 50.0 °F 30% 30.06 in - North 3.5 mph - N/A   Clear
1:00 PM 87.8 °F 50.0 °F 27% 30.06 in - NNE 2.3 mph - N/A   Clear
1:30 PM 87.8 °F 50.0 °F 27% 30.06 in - North 2.3 mph - N/A   Clear
2:00 PM 89.6 °F 46.4 °F 22% 30.04 in - SE 2.3 mph - N/A   Clear
2:30 PM 91.4 °F 46.4 °F 21% 30.04 in - ENE 2.3 mph - N/A   Clear
3:00 PM 93.2 °F 48.2 °F 21% 30.04 in - ESE 2.3 mph - N/A   Clear
3:30 PM 93.2 °F 48.2 °F 21% 30.01 in - SW 3.5 mph - N/A   Clear
4:00 PM 95.0 °F 46.4 °F 19% 30.01 in - North 1.2 mph - N/A   Clear
4:30 PM 95.0 °F 42.8 °F 16% 30.01 in - Variable 3.5 mph - N/A   Clear
5:00 PM 96.8 °F 42.8 °F 16% 29.98 in - NE 3.5 mph - N/A   Clear
5:30 PM 96.8 °F 44.6 °F 17% 29.98 in - ENE 1.2 mph - N/A   Clear
6:00 PM 96.8 °F 44.6 °F 17% 29.98 in - ESE 6.9 mph - N/A   Clear
6:30 PM 96.8 °F 42.8 °F 16% 29.95 in - NE 3.5 mph - N/A   Clear
7:00 PM 96.8 °F 46.4 °F 18% 29.95 in - SE 5.8 mph - N/A   Clear
7:30 PM 96.8 °F 46.4 °F 18% 29.95 in - ESE 5.8 mph - N/A   Clear
8:00 PM 96.8 °F 44.6 °F 17% 29.92 in - East 4.6 mph - N/A   Clear
8:30 PM 95.0 °F 44.6 °F 18% 29.92 in - SE 6.9 mph - N/A   Clear
9:00 PM 95.0 °F 44.6 °F 18% 29.92 in - SE 5.8 mph - N/A   Clear
9:30 PM 91.4 °F 44.6 °F 20% 29.92 in - ESE 3.5 mph - N/A   Clear
10:00 PM 89.6 °F 46.4 °F 22% 29.95 in - Calm Calm - N/A   Clear
10:30 PM 86.0 °F 50.0 °F 29% 29.95 in - East 2.3 mph - N/A   Clear
11:00 PM 86.0 °F 48.2 °F 27% 29.98 in - SSW 12.7 mph - N/A   Clear
11:30 PM 86.0 °F 46.4 °F 25% 29.98 in - SW 9.2 mph - N/A   Clear